Location: Unspecified
(42.2565°N, 0.0000°E)
Time: 16:18:08
(UTC+00:00)

UNISAT 6 - Visible Passes

Search period start: 04 April 2026 00:00
Search period end: 14 April 2026 00:00
Orbit: 574 x 636 km, 97.8° (Epoch: 28 March)

Date Brightness Start Highest point End Pass type
(mag) Time Alt. Az. Time Alt. Az. Time Alt. Az.
4 Apr ? 02:31:51 30° ENE 02:31:51 30° ENE 02:35:20 10° N visible
4 Apr ? 04:08:40 20° WNW 04:08:40 20° WNW 04:10:51 10° NW visible
5 Apr ? 02:44:18 40° ENE 02:44:18 40° ENE 02:48:06 10° N visible
5 Apr ? 04:21:08 16° WNW 04:21:08 16° WNW 04:22:56 10° NW visible
6 Apr ? 02:56:45 56° ENE 02:56:45 56° ENE 03:00:47 10° N visible
6 Apr ? 04:33:35 12° WNW 04:33:35 12° WNW 04:34:40 10° WNW visible
7 Apr ? 03:09:12 77° NE 03:09:12 77° NE 03:13:23 10° N visible
8 Apr ? 01:45:10 10° ENE 01:46:26 11° ENE 01:47:41 10° NE visible
8 Apr ? 03:21:38 75° W 03:21:38 75° W 03:25:56 10° NNW visible
9 Apr ? 01:57:15 13° E 01:58:47 15° ENE 02:01:14 10° NNE visible
9 Apr ? 03:34:04 54° WSW 03:34:07 54° W 03:38:23 10° NNW visible
10 Apr ? 02:09:40 17° E 02:11:10 20° ENE 02:14:17 10° NNE visible
10 Apr ? 03:46:30 39° WSW 03:46:41 39° W 03:50:46 10° NNW visible
11 Apr ? 02:22:05 21° E 02:23:34 26° ENE 02:27:10 10° NNE visible
11 Apr ? 03:58:55 28° WSW 03:59:16 29° W 04:03:03 10° NW visible
12 Apr ? 02:34:31 27° ESE 02:35:58 34° ENE 02:39:56 10° N visible
12 Apr ? 04:11:21 21° WSW 04:11:51 21° W 04:15:12 10° NW visible
13 Apr ? 02:46:55 33° ESE 02:48:24 46° ENE 02:52:36 10° N visible
13 Apr ? 04:23:46 15° WSW 04:24:28 16° W 04:27:10 10° NW visible
